PDT,Max TemperatureF,Mean TemperatureF,Min TemperatureF,Max Dew PointF,MeanDew PointF,Min DewpointF,Max Humidity, Mean Humidity, Min Humidity, Max Sea Level PressureIn, Mean Sea Level PressureIn, Min Sea Level PressureIn, Max VisibilityMiles, Mean VisibilityMiles, Min VisibilityMiles, Max Wind SpeedMPH, Mean Wind SpeedMPH, Max Gust SpeedMPH,PrecipitationIn, CloudCover, Events, WindDirDegrees
2012-3-1,32,26,15,27,18,7,93,73,50,30.21,30.07,29.95,10,7,0,23,8,33,0.01,6,Rain-Snow,288
2012-3-2,39,20,0,18,9,-2,93,77,28,30.45,30.33,30.07,10,10,10,8,2,,0.00,0,,112
2012-3-3,51,30,8,25,12,5,93,78,32,30.49,30.46,30.37,10,8,0,6,1,,0.00,0,Fog,75
2012-3-4,59,37,15,28,22,14,93,59,20,30.39,30.33,30.23,10,10,10,8,1,,0.00,0,,251
2012-3-5,53,36,19,30,3,-144,86,33,4,30.17,30.12,30.03,10,10,10,18,5,31,0.00,1,,206
2012-3-6,41,31,19,25,17,9,93,70,31,29.88,29.79,29.69,10,5,2,18,10,26,0.00,7,Snow,360
2012-3-7,37,21,5,9,4,0,78,36,27,30.25,30.19,30.05,10,10,10,9,6,16,0.00,0,,48
2012-3-8,53,32,10,18,14,7,85,42,24,30.45,30.42,30.39,10,10,10,8,2,,0.00,0,,20
2012-3-9,60,37,14,23,17,10,86,41,16,30.45,30.37,30.28,10,10,10,12,4,17,0.00,0,,252
2012-3-10,53,35,17,23,16,9,93,68,18,30.21,30.11,29.94,10,10,10,20,3,28,0.00,2,,191
2012-3-11,39,36,33,28,22,9,81,57,28,29.94,29.91,29.88,10,8,3,21,15,26,0.00,8,Snow,172
2012-3-12,44,38,32,27,24,21,64,53,49,29.95,29.92,29.87,10,10,10,18,10,34,0.00,6,,209
2012-3-13,39,36,32,32,31,27,93,84,70,29.94,29.89,29.79,10,5,2,24,17,40,0.08,8,Rain-Snow,200
2012-3-14,42,38,35,37,33,28,87,84,61,30.09,29.96,29.92,10,6,4,21,14,36,0.10,8,Rain,187
2012-3-15,48,42,37,39,38,36,93,84,71,30.39,30.14,30.06,10,7,4,16,8,23,0.00,8,Rain,201
2012-3-16,37,36,35,34,32,32,87,85,81,29.94,29.86,29.73,7,4,2,16,8,23,0.00,8,Rain,214
2012-3-17,21,,21,18,18,18,86,86,86,29.52,29.52,29.52,9,9,9,5,5,,0.00,8,,110
2012-3-18,26,22,19,21,19,18,100,82,69,29.61,29.56,29.46,7,4,2,15,5,20,0.00,8,Snow,235
2012-3-19,30,19,10,21,12,9,93,70,47,29.91,29.87,29.80,10,10,8,12,3,,0.00,7,,356
2012-3-20,44,36,28,37,32,27,93,83,76,30.16,30.13,30.07,10,10,10,8,2,,0.00,6,,169
2012-3-21,51,43,35,32,31,28,81,60,47,30.16,30.11,30.04,10,10,10,18,10,23,0.00,4,,205
2012-3-22,53,47,41,32,28,25,65,49,37,29.95,29.92,29.87,10,10,10,21,10,37,0.00,5,,217
2012-3-23,46,37,28,23,16,10,69,41,27,29.99,29.96,29.91,10,10,10,22,15,31,0.00,2,,209
2012-3-24,53,46,39,16,10,-2,27,22,17,29.85,29.81,29.75,10,10,10,18,14,30,0.00,6,,203
2012-3-25,50,42,35,27,20,14,70,46,33,29.76,29.74,29.70,10,10,10,21,15,24,0.00,7,Snow,224
2012-3-26,37,32,26,25,21,18,80,62,52,30.00,29.96,29.87,10,8,3,17,11,24,0.00,7,Snow,221
2012-3-27,46,39,32,32,27,16,100,72,37,29.98,29.92,29.89,10,8,3,26,14,38,0.06,7,Snow,191
2012-3-28,39,36,32,32,30,27,100,82,61,30.11,30.03,29.90,10,8,0,18,10,33,0.03,7,Rain-Snow,203
2012-3-29,48,40,32,32,28,19,81,69,39,30.12,30.09,30.06,10,10,7,20,9,25,0.00,7,Rain,182
2012-3-30,57,46,35,39,35,28,93,72,48,30.12,30.03,29.91,10,10,10,23,9,32,0.01,6,Rain,214
2012-3-31,48,36,24,32,27,18,100,74,40,29.90,29.80,29.63,10,7,0,36,18,58,0.04,5,Rain-Snow,210